Weather History for Ord, NE

Change the Weather History Date:

Monday, April 2, 2012

  Actual Average Record
Temperature  
Mean Temperature 55 °F 44 °F  
Max Temperature 63 °F 57 °F 76 °F (2011)
Min Temperature 46 °F 31 °F 16 °F (2002)
Degree Days  
Heating Degree Days 10    
Month to date heating degree days 10  
Cooling Degree Days 0    
Month to date cooling degree days 2  
Year to date cooling degree days 17  
Growing Degree Days 5 (Base 50)    
Moisture  
Dew Point 47 °F    
Average Humidity 80    
Maximum Humidity 100    
Minimum Humidity 60    
Precipitation  
Precipitation 0.00 in 0.05 in 2.10 in (1925)
Month to date precipitation 0.00 0.10  
Year to date precipitation 2.10 2.36  
Sea Level Pressure  
Sea Level Pressure 29.62 in    
Wind  
Wind Speed 18 mph (NNW)    
Max Wind Speed 35 mph    
Max Gust Speed 43 mph    
Visibility 10 miles    
Events      
T = Trace of Precipitation, MM = Missing Value Source: NWS Daily Summary

Daily Weather History Graph

Daily Weather History Graph

Search for Another Location

Airport:

Trip Planner

Search our weather history database for the weather conditions in past years. The results will help you decide how hot, cold, wet, or windy it might be!

Date:

Astronomy

Apr. 02, 2012 Rise Set
Actual Time 7:16 AM CDT 8:02 PM CDT
Civil Twilight 6:48 AM CDT 8:30 PM CDT
Nautical Twilight 6:14 AM CDT 9:04 PM CDT
Astronomical Twilight 5:40 AM CDT 9:38 PM CDT
Moon 3:37 PM CDT (4/2) 4:34 AM CDT (4/2)
Length of Visible Light 13h 42m
Length of Day
12h 46m
Waxing Gibbous, 78% of the Moon is Illuminated
Apr 2
Waxing Gibbous
Apr 6
Full
Apr 13
Last Quarter
Apr 21
New
Apr 29
First Quarter

Hourly Weather History & Observations

Time (CDT) Temp. Windchill Dew Point Humidity Pressure Visibility Wind Dir Wind Speed Gust Speed Precip Events Conditions
12:53 AM 64.0 °F - 57.0 °F 78% 29.31 in 10.0 mi Variable 3.5 mph - N/A   Clear
1:53 AM 60.1 °F - 55.0 °F 83% 29.31 in 10.0 mi ENE 4.6 mph - N/A   Clear
2:53 AM 61.0 °F - 54.0 °F 78% 29.31 in 10.0 mi SE 6.9 mph - N/A   Clear
3:53 AM 61.0 °F - 54.0 °F 78% 29.31 in 10.0 mi ESE 5.8 mph - N/A   Clear
4:53 AM 51.1 °F - 50.0 °F 96% 29.35 in 10.0 mi Calm Calm - N/A   Clear
5:53 AM 50.0 °F - 48.9 °F 96% 29.36 in 10.0 mi NW 3.5 mph - N/A   Clear
6:53 AM 48.9 °F - 48.0 °F 97% 29.39 in 9.0 mi NW 10.4 mph - N/A   Clear
7:53 AM 52.0 °F - 48.9 °F 89% 29.44 in 10.0 mi NW 12.7 mph - N/A   Clear
8:42 AM 53.6 °F - 48.2 °F 82% 29.48 in 8.0 mi NNW 15.0 mph - N/A   Mostly Cloudy
8:53 AM 54.0 °F - 50.0 °F 86% 29.47 in 6.0 mi NNW 12.7 mph 20.7 mph N/A   Overcast
9:53 AM 55.0 °F - 46.9 °F 74% 29.50 in 10.0 mi NNW 12.7 mph 23.0 mph N/A   Overcast
10:53 AM 57.0 °F - 48.0 °F 72% 29.55 in 10.0 mi NW 20.7 mph 26.5 mph N/A   Overcast
11:53 AM 60.1 °F - 48.9 °F 67% 29.59 in 10.0 mi NNW 23.0 mph 28.8 mph N/A   Overcast
12:53 PM 61.0 °F - 46.9 °F 60% 29.60 in 10.0 mi NW 21.9 mph 28.8 mph N/A   Overcast
1:53 PM 61.0 °F - 46.0 °F 58% 29.65 in 10.0 mi NNW 19.6 mph 28.8 mph N/A   Overcast
2:53 PM 57.9 °F - 46.0 °F 65% 29.69 in 10.0 mi NNW 25.3 mph 33.4 mph N/A   Overcast
3:53 PM 55.0 °F - 46.0 °F 72% 29.72 in 10.0 mi NNW 27.6 mph 31.1 mph N/A   Overcast
4:53 PM 54.0 °F - 46.0 °F 75% 29.75 in 10.0 mi NNW 25.3 mph 38.0 mph N/A   Overcast
5:53 PM 53.1 °F - 45.0 °F 74% 29.80 in 10.0 mi NNW 21.9 mph 32.2 mph N/A   Overcast
6:25 PM 51.8 °F - 44.6 °F 76% 29.81 in 10.0 mi NNW 25.3 mph 33.4 mph N/A   Overcast
6:53 PM 48.9 °F - 44.1 °F 83% 29.84 in 10.0 mi NNW 26.5 mph 34.5 mph N/A   Overcast
7:17 PM 48.2 °F - 44.6 °F 87% 29.85 in 9.0 mi NNW 15.0 mph 28.8 mph N/A   Overcast
7:53 PM 46.9 °F - 43.0 °F 86% 29.87 in 9.0 mi NNW 19.6 mph 31.1 mph N/A   Overcast
8:53 PM 46.0 °F 38.3 °F 42.1 °F 86% 29.92 in 10.0 mi NNW 20.7 mph 27.6 mph N/A   Overcast
9:53 PM 46.0 °F 38.3 °F 41.0 °F 83% 29.96 in 10.0 mi NNW 20.7 mph 27.6 mph N/A   Overcast
10:53 PM 46.9 °F - 42.1 °F 83% 29.91 in 10.0 mi NNW 27.6 mph 41.4 mph N/A   Overcast
11:53 PM 46.9 °F - 42.1 °F 83% 29.91 in 10.0 mi North 26.5 mph 35.7 mph N/A   Overcast